DateTimeUTC,F1_A11,F1_S11,BsB_S11,BsG_S11,BsR_S11,BbsB_S11,BbsG_S11,BbsR_S11,BaB_A11,BaG_A11,BaR_A11,Tu_S11,T_S11,Uu_S11,U_S11,P_S11,T1_A11
2021-10-04T22:00:00Z,00000200,21000000,,,,,,,0001.12,0000.66,0001.01,16.1,23.3,,00.0,0668.4,30.7
2021-10-04T22:01:00Z,00000200,21000000,,,,,,,0000.99,0000.96,0000.70,16.0,23.3,,00.0,0668.4,30.7
2021-10-04T22:02:00Z,00000200,21000000,,,,,,,0000.95,0001.28,0000.57,16.0,23.3,,00.0,0668.4,30.7
2021-10-04T22:03:00Z,00000200,61000000,,,,,,,0018.69,0017.10,0014.02,16.0,23.3,,00.0,0668.4,30.7
2021-10-04T22:04:00Z,00000200,41000000,0002.18,0001.84,0001.09,0001.01,0000.32,0000.65,0031.75,0029.72,0023.79,16.4,23.1,,00.0,0669.4,30.7
2021-10-04T22:05:00Z,00000200,01000000,0003.92,0002.50,0001.57,0000.02,0000.94,0000.38,0042.13,0038.97,0031.18,16.5,23.1,,00.0,0669.4,30.7
2021-10-04T22:06:00Z,00000200,01000000,0007.78,0006.12,0003.95,0001.15,0001.62,0000.89,0096.13,0089.08,0071.64,16.5,23.1,,00.0,0669.4,30.7
2021-10-04T22:07:00Z,00000200,01000000,0009.26,0006.74,0004.13,0001.47,0001.60,0000.83,0111.70,0103.68,0084.07,16.6,23.1,,00.0,0669.4,30.7
2021-10-04T22:08:00Z,00000200,01000000,0005.05,0003.40,0002.21,0001.72,0000.89,0000.38,0068.31,0063.29,0051.22,16.7,23.2,,00.0,0669.4,30.7
2021-10-04T22:09:00Z,00000200,01000000,0004.77,0002.90,0001.78,0001.16,0000.62,0000.30,0055.29,0052.11,0041.39,16.7,23.2,,00.0,0669.4,30.8
2021-10-04T22:10:00Z,00000200,01000000,0000.53,0000.68,0000.49,0000.32,0000.20,0000.01,0014.78,0013.32,0011.18,16.7,23.2,,00.0,0669.4,30.8
2021-10-04T22:11:00Z,00000200,01000000,-000.31,0000.27,0000.27,-000.02,0000.04,-000.23,0003.98,0003.52,0002.95,16.6,23.2,,00.0,0669.4,30.7
2021-10-04T22:12:00Z,00000200,01000000,0000.19,0000.46,-000.01,0000.27,-000.06,0000.12,0002.01,0001.96,0001.50,16.6,23.1,,00.0,0669.4,30.7
2021-10-04T22:13:00Z,00000200,01000000,-000.10,0000.38,0000.33,-000.17,0000.07,0000.02,0004.05,0003.66,0002.58,16.5,23.1,,00.0,0669.4,30.7
2021-10-04T22:14:00Z,00000200,01000000,0000.98,0001.07,0000.49,0000.54,0000.20,-000.02,0012.61,0012.37,0009.91,16.4,23.1,,00.0,0669.4,30.7
2021-10-04T22:15:00Z,00000200,01000000,0002.09,0001.58,0001.20,0000.55,0000.29,0000.49,0028.63,0026.11,0021.36,16.4,23.0,,00.0,0669.4,30.7
2021-10-04T22:16:00Z,00000200,01000000,0003.20,0002.30,0001.56,0001.57,0000.71,0000.61,0041.16,0038.30,0030.45,16.4,23.0,,00.0,0669.4,30.7
2021-10-04T22:17:00Z,00000200,01000000,0003.92,0003.05,0002.09,0001.70,0000.99,0000.37,0056.45,0052.48,0042.36,16.4,23.0,,00.0,0669.4,30.7
2021-10-04T22:18:00Z,00000200,01000000,0005.45,0004.84,0003.26,0001.31,0001.01,0000.52,0077.03,0071.04,0057.81,16.5,23.0,,00.0,0669.4,30.7
2021-10-04T22:19:00Z,00000200,01000000,0007.44,0005.11,0003.58,0001.77,0001.12,0001.14,0084.18,0078.77,0063.39,16.5,23.1,,00.0,0669.4,30.7
2021-10-04T22:20:00Z,00000200,01000000,0007.26,0005.55,0003.51,0001.28,0001.15,0000.92,0097.07,0090.25,0072.74,16.6,23.1,,00.0,0669.4,30.7
2021-10-04T22:21:00Z,00000200,01000000,0007.90,0005.98,0003.64,0001.10,0001.51,0000.71,0097.06,0089.70,0072.44,16.6,23.1,,00.0,0669.4,30.7
2021-10-04T22:22:00Z,00000200,01000000,0006.85,0006.00,0003.73,0002.15,0001.25,0001.06,0099.37,0092.38,0074.73,16.7,23.1,,00.0,0669.4,30.7
2021-10-04T22:23:00Z,00000200,01000000,0009.93,0007.34,0004.55,0002.06,0001.71,0001.17,0119.00,0110.56,0089.43,16.7,23.2,,00.0,0669.4,30.7
2021-10-04T22:24:00Z,00000200,01000000,0011.14,0008.41,0005.04,0002.51,0001.80,0001.16,0130.80,0121.68,0098.87,16.8,23.2,,00.0,0669.4,30.7
2021-10-04T22:25:00Z,00000200,01000000,0007.22,0005.37,0004.13,0002.06,0001.07,0001.24,0098.41,0091.40,0073.67,16.7,23.2,,00.0,0669.4,30.7
2021-10-04T22:26:00Z,00000200,01000000,0007.70,0005.49,0003.89,0001.12,0001.45,0000.95,0094.23,0087.56,0071.06,16.6,23.1,,00.0,0669.4,30.7
2021-10-04T22:27:00Z,00000200,01000000,0007.14,0004.99,0003.23,0001.08,0001.03,0000.91,0077.60,0071.99,0057.80,16.5,23.1,,00.0,0669.3,30.7
2021-10-04T22:28:00Z,00000200,01000000,0003.45,0002.33,0001.31,0000.51,0000.62,0000.13,0044.30,0041.51,0033.59,16.4,23.1,,00.0,0669.3,30.7
2021-10-04T22:29:00Z,00000200,01000000,0001.76,0001.30,0000.66,0000.45,0000.33,0000.02,0023.74,0022.01,0018.42,16.3,23.0,,00.0,0669.3,30.7
2021-10-04T22:30:00Z,00000200,01000000,0001.39,-000.01,0000.33,0000.08,0000.32,0000.18,0010.91,0010.03,0007.70,16.3,23.0,,00.0,0669.3,30.7
2021-10-04T22:31:00Z,00000200,01000000,0001.49,0000.48,0000.73,0000.88,0000.15,0000.02,0010.24,0009.81,0008.07,16.3,22.9,,00.0,0669.3,30.7
2021-10-04T22:32:00Z,00000200,01000000,0001.13,0000.47,0000.14,0000.18,0000.29,-000.03,0006.32,0005.60,0004.44,16.3,23.0,,00.0,0669.3,30.7
2021-10-04T22:33:00Z,00000200,01000000,-000.65,-000.17,-000.09,-000.09,-000.32,-000.34,0000.93,0001.34,0000.94,16.4,23.0,,00.0,0669.3,30.7
2021-10-04T22:34:00Z,00000200,01000000,0000.40,-000.12,0000.07,0000.71,-000.29,-000.26,0000.92,0000.80,0000.67,16.5,23.0,,00.0,0669.3,30.7
2021-10-04T22:35:00Z,00000200,01000000,0000.71,0000.24,-000.24,-000.09,0000.12,-000.10,0000.80,0000.30,0000.56,16.5,23.0,,00.0,0669.3,30.7
2021-10-04T22:36:00Z,00000200,01000000,0000.41,0000.02,0000.12,-000.09,-000.41,-000.04,0000.97,0000.86,0000.23,16.5,23.0,,00.0,0669.3,30.7
2021-10-04T22:37:00Z,00000200,01000000,0000.86,-000.08,-000.19,0000.21,0000.03,-000.27,0000.53,0000.52,0000.66,16.6,23.0,,00.0,0669.3,30.7
2021-10-04T22:38:00Z,00000200,01000000,0000.47,-000.28,0000.06,-000.36,-000.05,-000.49,0000.47,0000.50,0000.31,16.6,23.0,,00.0,0669.4,30.7
2021-10-04T22:39:00Z,00000200,01000000,-000.02,-000.03,0000.24,0000.12,-000.10,0000.30,0000.45,0000.54,0000.36,16.7,23.1,,00.0,0669.4,30.7
2021-10-04T22:40:00Z,00000200,01000000,-000.14,-000.08,0000.21,0000.47,0000.11,0000.13,0000.61,0000.25,0000.24,16.6,23.1,,00.0,0669.4,30.7
2021-10-04T22:41:00Z,00000200,01000000,0000.58,0000.26,0000.23,-000.42,-000.30,-000.02,0000.41,0000.28,0000.11,16.6,23.1,,00.0,0669.4,30.7
2021-10-04T22:42:00Z,00000200,01000000,-000.16,-000.05,0000.15,0000.21,-000.08,0000.05,0000.69,0000.74,0000.57,16.5,23.0,,00.0,0669.4,30.7
2021-10-04T22:43:00Z,00000200,01000000,0000.22,0000.01,0000.08,-000.11,-000.13,-000.37,0000.29,0000.46,0000.19,16.4,23.0,,00.0,0669.4,30.7
2021-10-04T22:44:00Z,00000200,01000000,-000.08,-000.12,0000.13,0000.21,-000.01,0000.25,0000.87,0000.51,0000.72,16.3,22.9,,00.0,0669.4,30.7
2021-10-04T22:45:00Z,00000200,01000000,-000.51,-000.11,0000.24,0000.16,0000.20,-000.22,0000.65,0000.96,0000.18,16.2,22.9,,00.0,0669.4,30.7
2021-10-04T22:46:00Z,00000200,01000000,0000.13,0000.02,-000.07,-000.25,0000.15,-000.14,0000.82,0000.47,0000.96,16.2,22.9,,00.0,0669.3,30.7
2021-10-04T22:47:00Z,00000200,01000000,0000.08,-000.08,0000.04,0000.06,-000.02,-000.33,0000.77,0000.40,0000.10,16.3,22.9,,00.0,0669.3,30.7
2021-10-04T22:48:00Z,00000200,01000000,-000.26,0000.17,0000.19,0000.08,-000.13,0000.10,0000.71,0000.97,0000.74,16.3,22.9,,00.0,0669.3,30.7
2021-10-04T22:49:00Z,00000200,01000000,-000.25,0000.03,0000.27,-000.27,-000.14,-000.20,0000.63,0000.39,0000.40,16.3,22.9,,00.0,0669.3,30.7
2021-10-04T22:50:00Z,00000200,01000000,0000.42,-000.03,-000.14,-000.08,-000.10,0000.20,0000.33,0000.42,0000.66,16.4,22.9,,00.0,0669.3,30.7
2021-10-04T22:51:00Z,00000200,01000000,0000.16,0000.31,-000.06,-000.09,-000.25,-000.26,0000.21,0000.43,-000.29,16.5,23.0,,00.0,0669.3,30.7
2021-10-04T22:52:00Z,00000200,01000000,-000.04,0000.07,0000.35,0000.18,-000.05,-000.37,0000.58,0000.44,0000.75,16.5,23.0,,00.0,0669.3,30.7
2021-10-04T22:53:00Z,00000200,01000000,0000.49,0000.34,0000.29,0000.75,0000.05,-000.38,0000.45,0000.44,0000.34,16.6,23.0,,00.0,0669.3,30.7
2021-10-04T22:54:00Z,00000200,01000000,0000.01,0000.19,-000.22,-000.09,-000.21,0000.06,0000.38,0000.59,0000.21,16.6,23.0,,00.0,0669.4,30.7
2021-10-04T22:55:00Z,00000200,01000000,-000.45,0000.19,0000.12,0000.51,0000.08,0000.00,0000.26,0000.38,0000.01,16.7,23.1,,00.0,0669.4,30.7
2021-10-04T22:56:00Z,00000200,01000000,0000.24,0000.13,0000.37,0000.26,0000.07,0000.17,0000.48,0000.04,0000.19,16.6,23.1,,00.0,0669.4,30.7
2021-10-04T22:57:00Z,00000200,41000000,,,,,,,0001.30,0001.27,0001.40,16.6,23.1,,00.0,0669.2,30.7
2021-10-04T22:58:00Z,00000200,61000000,,,,,,,0000.11,0000.18,-000.22,16.2,23.2,,00.0,0668.3,30.7
2021-10-04T22:59:00Z,00000200,21000000,,,,,,,0000.54,0000.20,0000.24,16.1,23.3,,00.0,0668.3,30.7
